Date,TemperatureHighF,TemperatureAvgF,TemperatureLowF,DewpointHighF,DewpointAvgF,DewpointLowF,HumidityHigh,HumidityAvg,HumidityLow,PressureMaxIn,PressureMinIn,WindSpeedMaxMPH,WindSpeedAvgMPH,GustSpeedMaxMPH,PrecipitationSumIn
2012-12-1,62,44,29,38,31,23,82,61,35,29.27,29.17,2,2,2,0.00
2012-12-2,56,53,48,54,44,36,98,74,53,29.18,29.04,5,2,10,0.00
2012-12-3,61,57,53,59,55,52,98,93,81,29.19,29.13,5,1,7,0.00
2012-12-4,63,55,41,57,48,39,98,78,55,29.15,28.98,7,3,18,0.41
2012-12-5,42,34,24,39,26,15,98,75,41,29.31,29.12,8,2,15,0.33
2012-12-6,48,32,21,28,19,-100,88,66,35,29.25,28.97,4,1,7,0.00
2012-12-7,49,46,37,48,44,27,98,94,68,28.98,28.84,3,0,5,0.75
2012-12-8,56,50,40,52,46,35,98,87,69,29.08,28.79,6,2,11,0.29
2012-12-9,58,45,38,57,39,30,98,81,62,29.11,28.71,6,3,13,0.34
2012-12-10,58,47,36,57,45,33,98,91,78,28.81,28.61,5,3,13,0.95
2012-12-11,43,35,28,33,26,16,93,71,48,29.18,28.80,5,2,11,0.08
2012-12-12,47,33,24,26,19,15,85,59,33,29.34,29.17,3,1,6,0.00
2012-12-13,50,30,19,31,17,12,86,63,27,29.36,29.18,4,1,6,0.00
2012-12-14,55,34,23,28,21,17,85,63,29,29.23,29.14,5,1,5,0.00
2012-12-15,50,39,27,33,25,22,87,62,37,29.18,28.81,6,1,6,0.00
2012-12-16,57,53,47,51,40,30,91,63,48,28.81,28.68,5,3,11,0.08
2012-12-17,52,46,41,49,45,40,98,95,82,28.76,28.53,3,0,6,0.46
2012-12-18,49,41,37,45,32,21,98,74,38,28.79,28.52,6,3,14,0.37
2012-12-19,46,40,32,36,32,28,90,75,53,29.09,28.71,5,1,10,0.04
2012-12-20,50,42,32,44,34,24,96,76,45,29.07,28.34,10,4,14,0.54
2012-12-21,38,33,31,28,24,20,80,68,53,28.70,28.32,12,7,18,0.08
2012-12-22,33,31,24,21,17,14,72,56,50,29.05,28.73,10,5,24,0.04
2012-12-23,36,25,20,22,18,16,86,73,49,29.01,28.86,3,1,4,0.00
2012-12-24,37,30,21,33,24,16,95,80,55,28.96,28.71,5,1,7,0.08
2012-12-25,36,34,33,34,26,20,98,75,53,29.18,28.85,5,2,9,0.04
2012-12-26,34,31,29,29,24,19,97,76,55,29.15,28.55,9,5,13,0.00
2012-12-27,34,30,28,27,25,21,90,80,72,29.08,28.63,6,4,11,0.00
2012-12-28,43,29,23,23,18,13,77,63,39,29.11,28.81,5,2,9,0.04
2012-12-29,38,30,27,28,24,19,93,78,56,28.92,28.59,6,3,9,0.04
2012-12-30,31,26,20,23,17,13,82,68,54,29.28,28.92,9,4,14,0.00
2012-12-31,35,28,19,29,20,15,92,75,46,29.23,28.95,6,3,14,0.00